timestamp,surface_pressure_avg,surface_temp_avg,battery_voltage,lat,long
2020-07-04 00:09:01+00:00,343.1447,12.99,13.44,47.84626,-54.09684
2020-07-04 00:19:01+00:00,335.2113,13.12,13.05,47.84626,-54.09684
2020-07-04 00:29:01+00:00,328.8846,12.31,13.05,47.84626,-54.09684
2020-07-04 00:39:01+00:00,327.0496,12.33,13.05,47.84626,-54.09684
2020-07-04 00:49:01+00:00,314.918,12.9,13.05,47.84626,-54.09684
2020-07-04 00:59:01+00:00,304.573,13.2,13.05,47.84626,-54.09684
2020-07-04 01:09:01+00:00,298.2014,13.2,13.05,47.84626,-54.09684
2020-07-04 01:19:01+00:00,296.3914,13.2,12.81,47.84626,-54.09684
2020-07-04 01:29:01+00:00,286.1164,13.34,12.81,47.84626,-54.09684
2020-07-04 01:39:01+00:00,279.1514,13.4,12.81,47.84626,-54.09684
2020-07-04 01:49:01+00:00,271.7564,12.4,12.81,47.84626,-54.09684
2020-07-04 01:59:01+00:00,260.4831,12.52,12.81,47.84626,-54.09684
2020-07-04 02:09:01+00:00,249.6331,13.17,12.81,47.84626,-54.09684
2020-07-04 02:19:01+00:00,243.8181,13.29,12.73,47.84626,-54.09684
2020-07-04 02:29:01+00:00,238.6631,12.96,12.73,47.84626,-54.09684
2020-07-04 02:39:01+00:00,231.6664,12.57,12.73,47.84626,-54.09684
2020-07-04 02:49:01+00:00,228.4247,12.62,12.73,47.84626,-54.09684
2020-07-04 02:59:01+00:00,221.6964,12.84,12.73,47.84626,-54.09684
2020-07-04 03:09:01+00:00,214.1248,12.9,12.73,47.84626,-54.09684
2020-07-04 03:19:01+00:00,206.7531,12.8,12.73,47.84626,-54.09684
2020-07-04 03:29:01+00:00,203.1298,12.7,12.73,47.84626,-54.09684
2020-07-04 03:39:01+00:00,199.7682,12.7,12.73,47.84626,-54.09684
2020-07-04 03:49:01+00:00,189.5965,12.7,12.73,47.84626,-54.09684
2020-07-04 03:59:01+00:00,186.1915,12.7,12.73,47.84626,-54.09684
2020-07-04 04:09:01+00:00,187.5182,12.7,12.73,47.84626,-54.09684
2020-07-04 04:19:01+00:00,184.7347,12.7,12.73,47.84626,-54.09684
2020-07-04 04:29:01+00:00,182.8165,12.76,12.73,47.84626,-54.09684
2020-07-04 04:39:01+00:00,183.2048,12.77,12.73,47.84626,-54.09684
2020-07-04 04:49:01+00:00,180.1898,12.8,12.73,47.84626,-54.09684
2020-07-04 04:59:01+00:00,183.4048,12.7,12.73,47.84626,-54.09684
2020-07-04 05:09:01+00:00,187.9448,12.76,12.73,47.84626,-54.09684
2020-07-04 05:19:01+00:00,184.4265,13.05,12.65,47.84626,-54.09684
2020-07-04 05:29:01+00:00,185.6248,13.2,12.65,47.84626,-54.09684
2020-07-04 05:39:01+00:00,191.6898,13.07,12.65,47.84626,-54.09684
2020-07-04 05:49:01+00:00,190.9482,12.95,12.65,47.84626,-54.09684
2020-07-04 05:59:01+00:00,185.2715,13.1,12.65,47.84626,-54.09684
2020-07-04 06:09:01+00:00,187.6865,13.2,12.65,47.84626,-54.09684
2020-07-04 06:19:01+00:00,195.3398,13.2,12.65,47.84626,-54.09684
2020-07-04 06:29:01+00:00,195.6764,13.1,12.65,47.84626,-54.09684
2020-07-04 06:39:01+00:00,196.1431,12.9,12.65,47.84626,-54.09684
2020-07-04 06:49:01+00:00,199.5998,12.96,12.65,47.84626,-54.09684
2020-07-04 06:59:01+00:00,201.9114,12.9,12.65,47.84626,-54.09684
2020-07-04 07:09:01+00:00,204.5597,12.76,12.65,47.84626,-54.09684
2020-07-04 07:19:01+00:00,210.2264,12.6,12.65,47.84626,-54.09684
2020-07-04 07:29:01+00:00,218.3365,12.71,12.65,47.84626,-54.09684
2020-07-04 07:39:01+00:00,223.0314,12.8,12.65,47.84626,-54.09684
2020-07-04 07:49:01+00:00,228.8015,12.7,12.65,47.84626,-54.09684
2020-07-04 07:59:01+00:00,239.2048,12.5,12.65,47.84626,-54.09684
2020-07-04 08:09:01+00:00,246.9197,12.64,12.65,47.84626,-54.09684
2020-07-04 08:19:01+00:00,255.4264,12.59,12.65,47.84626,-54.09684
2020-07-04 08:29:01+00:00,262.3164,12.5,12.65,47.84626,-54.09684
2020-07-04 08:39:01+00:00,273.4297,12.5,12.65,47.84626,-54.09684
2020-07-04 08:49:01+00:00,282.6631,12.5,12.65,47.84626,-54.09684
2020-07-04 08:59:01+00:00,289.283,12.45,12.65,47.84626,-54.09684
2020-07-04 09:09:01+00:00,293.7997,12.49,12.65,47.84626,-54.09684
2020-07-04 09:19:01+00:00,300.993,12.5,12.97,47.84626,-54.09684
2020-07-04 09:29:01+00:00,305.6547,11.94,12.97,47.84626,-54.09684
2020-07-04 09:39:01+00:00,307.508,12.03,12.97,47.84626,-54.09684
2020-07-04 09:49:01+00:00,312.5947,12.3,12.97,47.84626,-54.09684
2020-07-04 09:59:01+00:00,321.3713,11.95,12.97,47.84626,-54.09684
2020-07-04 10:09:01+00:00,323.9464,11.95,12.97,47.84626,-54.09684
2020-07-04 10:19:01+00:00,321.2629,12.08,13.44,47.84626,-54.09684
2020-07-04 10:29:01+00:00,324.208,12.1,13.44,47.84626,-54.09684
2020-07-04 10:39:01+00:00,330.0847,12.1,13.44,47.84626,-54.09684
2020-07-04 10:49:01+00:00,332.7729,12.1,13.44,47.84626,-54.09684
2020-07-04 10:59:01+00:00,335.0897,12.12,13.44,47.84626,-54.09684
2020-07-04 11:09:01+00:00,338.1463,12.1,13.44,47.84626,-54.09684
2020-07-04 11:19:01+00:00,339.6696,12.08,14.24,47.84626,-54.09684
2020-07-04 11:29:01+00:00,340.1779,12.2,14.24,47.84626,-54.09684
2020-07-04 11:39:01+00:00,339.9763,12.2,14.24,47.84626,-54.09684
2020-07-04 11:49:01+00:00,337.3612,12.1,14.24,47.84626,-54.09684
2020-07-04 11:59:01+00:00,332.793,12.24,14.24,47.84626,-54.09684
2020-07-04 12:09:01+00:00,330.0730000000001,12.3,14.24,47.84626,-54.09684
2020-07-04 12:19:01+00:00,324.733,12.27,14.4,47.84626,-54.09684
2020-07-04 12:29:01+00:00,319.2679,12.28,14.4,47.84626,-54.09684
2020-07-04 12:39:01+00:00,315.7313,12.4,14.4,47.84626,-54.09684
2020-07-04 12:49:01+00:00,310.488,12.46,14.4,47.84626,-54.09684
2020-07-04 12:59:01+00:00,304.528,12.48,14.4,47.84626,-54.09684
2020-07-04 13:09:01+00:00,299.1763,12.66,14.4,47.84626,-54.09684
2020-07-04 13:19:01+00:00,293.563,12.9,14.48,47.84626,-54.09684
2020-07-04 13:29:01+00:00,287.4613,12.94,14.48,47.84626,-54.09684
2020-07-04 13:39:01+00:00,274.7431,13.08,14.48,47.84626,-54.09684
2020-07-04 13:49:01+00:00,264.2481,13.1,14.48,47.84626,-54.09684
2020-07-04 13:59:01+00:00,257.0081,13.1,14.48,47.84626,-54.09684
2020-07-04 14:09:01+00:00,252.4897,13.1,14.48,47.84626,-54.09684
2020-07-04 14:19:01+00:00,240.6764,13.17,14.48,47.84626,-54.09684
2020-07-04 14:29:01+00:00,228.2564,13.19,14.48,47.84626,-54.09684
2020-07-04 14:39:01+00:00,221.7448,13.17,14.48,47.84626,-54.09684
2020-07-04 14:49:01+00:00,217.1248,13.2,14.48,47.84626,-54.09684
2020-07-04 14:59:01+00:00,208.5098,13.2,14.48,47.84626,-54.09684
2020-07-04 15:09:01+00:00,202.4431,13.2,14.48,47.84626,-54.09684
2020-07-04 15:19:01+00:00,196.8165,13.2,14.4,47.84626,-54.09684
2020-07-04 15:29:01+00:00,191.2548,13.21,14.4,47.84626,-54.09684
2020-07-04 15:39:01+00:00,182.6881,13.3,14.4,47.84626,-54.09684
2020-07-04 15:49:01+00:00,177.0198,13.37,14.4,47.84626,-54.09684
2020-07-04 15:59:01+00:00,177.7898,13.3,14.4,47.84626,-54.09684
2020-07-04 16:09:01+00:00,175.2281,13.3,14.4,47.84626,-54.09684
2020-07-04 16:19:01+00:00,172.7365,13.3,14.32,47.84626,-54.09684
2020-07-04 16:29:01+00:00,171.0731,13.3,14.32,47.84626,-54.09684
2020-07-04 16:39:01+00:00,168.4765,13.3,14.32,47.84626,-54.09684
2020-07-04 16:49:01+00:00,173.4498,13.3,14.32,47.84626,-54.09684
2020-07-04 16:59:01+00:00,175.6448,13.37,14.32,47.84626,-54.09684
2020-07-04 17:09:01+00:00,172.7664,13.4,14.32,47.84626,-54.09684
2020-07-04 17:19:01+00:00,173.2114,13.4,14.24,47.84626,-54.09684
2020-07-04 17:29:01+00:00,176.1131,13.4,14.24,47.84626,-54.09684
2020-07-04 17:39:01+00:00,181.0831,13.46,14.24,47.84626,-54.09684
2020-07-04 17:49:01+00:00,186.6064,13.48,14.24,47.84626,-54.09684
2020-07-04 17:59:01+00:00,192.7381,13.49,14.24,47.84626,-54.09684
2020-07-04 18:09:01+00:00,201.5098,13.5,14.24,47.84626,-54.09684
2020-07-04 18:19:01+00:00,206.3931,13.4,14.08,47.84626,-54.09684
2020-07-04 18:29:01+00:00,207.4499,13.48,14.08,47.84626,-54.09684
2020-07-04 18:39:01+00:00,210.1231,13.58,14.08,47.84626,-54.09684
2020-07-04 18:49:01+00:00,214.2215,13.5,14.08,47.84626,-54.09684
2020-07-04 18:59:01+00:00,217.2981,13.5,14.08,47.84626,-54.09684
2020-07-04 19:09:01+00:00,219.5264,13.58,14.08,47.84626,-54.09684
2020-07-04 19:19:01+00:00,224.4281,13.69,14.0,47.84626,-54.09684
2020-07-04 19:29:01+00:00,231.2347,13.66,14.0,47.84626,-54.09684
2020-07-04 19:39:01+00:00,236.8081,13.7,14.0,47.84626,-54.09684
2020-07-04 19:49:01+00:00,244.0681,13.77,14.0,47.84626,-54.09684
2020-07-04 19:59:01+00:00,251.7847,13.8,14.0,47.84626,-54.09684
2020-07-04 20:09:01+00:00,256.5748,13.6,14.0,47.84626,-54.09684
2020-07-04 20:19:01+00:00,260.5514,13.6,13.92,47.84626,-54.09684
2020-07-04 20:29:01+00:00,269.5898,13.51,13.92,47.84626,-54.09684
2020-07-04 20:39:01+00:00,277.848,13.6,13.92,47.84626,-54.09684
2020-07-04 20:49:01+00:00,284.438,13.49,13.92,47.84626,-54.09684
2020-07-04 20:59:01+00:00,297.5131,13.6,13.92,47.84626,-54.09684
2020-07-04 21:09:01+00:00,311.2713,13.5,13.92,47.84626,-54.09684
2020-07-04 21:19:01+00:00,317.1647,13.52,13.84,47.84626,-54.09684
2020-07-04 21:29:01+00:00,320.8846,13.6,13.84,47.84626,-54.09684
2020-07-04 21:39:01+00:00,336.0229,13.5,13.84,47.84626,-54.09684
2020-07-04 21:49:01+00:00,343.8614,13.4,13.84,47.84626,-54.09684
2020-07-04 21:59:01+00:00,341.8996,13.5,13.84,47.84626,-54.09684
2020-07-04 22:09:01+00:00,349.8179,13.49,13.84,47.84626,-54.09684
2020-07-04 22:19:01+00:00,359.298,12.78,13.6,47.84626,-54.09684
2020-07-04 22:29:01+00:00,354.723,13.53,13.6,47.84626,-54.09684
2020-07-04 22:39:01+00:00,352.5163,13.6,13.6,47.84626,-54.09684
2020-07-04 22:49:01+00:00,362.5797,12.44,13.6,47.84626,-54.09684
2020-07-04 22:59:01+00:00,363.5829,13.07,13.6,47.84626,-54.09684
2020-07-04 23:09:01+00:00,359.6628,13.55,13.6,47.84626,-54.09684
2020-07-04 23:19:01+00:00,365.3363,12.6,13.29,47.84626,-54.09684
2020-07-04 23:29:01+00:00,371.8779,12.77,13.29,47.84626,-54.09684
2020-07-04 23:39:01+00:00,366.168,13.3,13.29,47.84626,-54.09684
2020-07-04 23:49:01+00:00,365.1479,13.32,13.29,47.84626,-54.09684
2020-07-04 23:59:01+00:00,364.0912,12.4,13.29,47.84626,-54.09684
